Regional Weather Roundup
Issued by NWS

Home | Current Version | Previous Version | Text Only | Print | Product List | Glossary Off
Versions: 1 2 3 4 5 6 7 8 9 10 11 12 13 14 15 16 17 18 19 20 21 22 23 24 25 26 27 28 29 30 31 32 33 34 35 36 37 38 39 40 41 42 43 44 45 46 47 48 49 50

000
ASUS43 KOAX 011702
RWRNE
WEATHER ROUNDUP FOR NEBRASKA
NATIONAL WEATHER SERVICE OMAHA NE
1200 PM CDT MON JUN 01 2015

NOTES: SATELLITE DATA IS BEING USED TO AUGMENT CLOUD COVER ABOVE
       12000 FEET.
       "FAIR" INDICATES FEW OR NO CLOUDS BELOW 12,000 FEET WITH NO
       SIGNIFICANT WEATHER AND/OR OBSTRUCTIONS TO VISIBILITY.

  * THESE STATIONS DO NOT REPORT WEATHER SUCH AS RAIN...SNOW OR FOG.

NEZ001>004-019>022-054>056-011800-
NEBRASKA PANHANDLE

CITY           SKY/WX    TMP DP  RH WIND       PRES   REMARKS
SCOTTSBLUFF    SUNNY     75  61  61 SE12      30.00F
ALLIANCE       SUNNY     69  60  73 S17       30.02F
CHADRON        SUNNY     79  60  52 S13       29.95F
KIMBALL          N/A    N/A N/A N/A MISG        N/A
SIDNEY         SUNNY     73  59  61 SE13      30.06S
$$

NEZ057>060-069>072-079>082-011800-
SOUTHWEST NEBRASKA

CITY           SKY/WX    TMP DP  RH WIND       PRES   REMARKS
NORTH PLATTE   CLOUDY    63  57  81 SE9       30.06F
IMPERIAL       SUNNY     70  59  68 SE9       30.05S
LEXINGTON      CLOUDY    68  60  75 S14G21    30.06F
MCCOOK         CLOUDY    67  58  72 SE13      30.05F
$$

NEZ005>010-023>029-035>040-094-011800-
NORTH CENTRAL NEBRASKA

CITY           SKY/WX    TMP DP  RH WIND       PRES   REMARKS
VALENTINE      SUNNY     74  59  59 S15       30.00F
AINSWORTH      MOSUNNY   70  59  68 S15G22    30.03S
BROKEN BOW     CLOUDY    70  58  65 SE15G23   30.06F
ORD            MOSUNNY   73  57  57 S17G24    30.06F
$$

NEZ041-046>049-061>064-073>077-083>087-011800-
SOUTH CENTRAL NEBRASKA

CITY           SKY/WX    TMP DP  RH WIND       PRES   REMARKS
GRAND ISLAND   PTSUNNY   70  56  61 SE17      30.11F
AURORA         CLOUDY    70  56  60 S14G20    30.11S
HASTINGS       MOSUNNY   70  58  65 S16G23    30.10S
KEARNEY *      MOSUNNY   72  57  60 S18G24    30.08F
$$

NEZ011>018-030>034-042>045-011800-
NORTHEAST NEBRASKA

CITY           SKY/WX    TMP DP  RH WIND       PRES   REMARKS
NORFOLK        SUNNY     72  55  55 S14G22    30.10F
ALBION         PTSUNNY   70  55  58 S14G21    30.10F
BLAIR          PTSUNNY   68  51  55 SE10      30.15S
COLUMBUS *     MOSUNNY   72  52  49 SE9G17    30.13F
FREMONT        SUNNY     71  54  55 SE12      30.14F
TEKAMAH        MOSUNNY   71  53  52 S13       30.14F
$$

NEZ050>053-065>068-078-088>093-011800-
SOUTHEAST NEBRASKA

CITY           SKY/WX    TMP DP  RH WIND       PRES   REMARKS
LINCOLN        MOSUNNY   72  54  53 SE10      30.14S
OMAHA EPPLEY   PTSUNNY   69  54  58 VRB6      30.16S
BEATRICE       MOSUNNY   69  55  61 S9        30.13F
FALLS CITY     CLOUDY    66  55  67 E9        30.16S
NEBRASKA CITY  CLOUDY    67  51  57 SE8       30.16S
PLATTSMOUTH    PTSUNNY   67  53  61 SE10      30.16S
$$

NEZ044-045-051>053-067-011800-
OMAHA AREA

CITY           SKY/WX    TMP DP  RH WIND       PRES   REMARKS
OMAHA EPPLEY   PTSUNNY   69  54  58 VRB6      30.16S
BLAIR          PTSUNNY   68  51  55 SE10      30.15S
FREMONT        SUNNY     71  54  55 SE12      30.14F
OFFUTT AFB     MOSUNNY   69  55  61 CALM      30.15S
PLATTSMOUTH    PTSUNNY   67  53  61 SE10      30.16S
WAHOO          FAIR      70  53  55 SE14G20   30.14S
$$



USA.gov is the U.S. government's official web portal to all federal, state and local government web resources and services.